Track YAOGAN-31 B now! 10-day predictions YAOGAN-31 B is classified as:
1 43276U 18034B 23090.69912763 -.00000090 00000-0 00000+0 0 9994 2 43276 63.4010 228.3422 0170338 4.2506 355.9922 13.45260574244349